Storm Events Database

Event Details

Event Tornado
-- Scale EF1
-- Length 1.14 Miles
-- Width 50 Yards
State MISSOURI
County/Area CASS
WFO EAX
Report Source Law Enforcement
NCDC Data Source CSV
Begin Date 2007-02-28 22:05:00.0 CST-6
Begin Location 1E GUNN CITY
Begin Lat/Lon 38.67/-94.1515
End Date 2007-02-28 22:06:00.0 CST-6
End Location 2ENE GUNN CITY
End Lat/Lon 38.6811/-94.1358
Deaths Direct/Indirect 0/0 (fatality details below, when available...)
Injuries Direct/Indirect 0/0
Property Damage 30.00K
Crop Damage 0.00K
Episode Narrative A strong storm system lifted northeast into the region from Oklahoma, during the late afternoon and early evening hours on February 28th. The dynamics from this storm system provided the lift for rapid thunderstorm development along and north of a warm front by the early evening hours. There were numerous reports of hail with the storms, as well as some flash flooding.
In addition, two tornadoes were observed. They were associated with a supercell severe thunderstorm, which earlier had produced an EF4 tornado in Linn county Kansas. The first EF1 tornado was observed in Bates county between Amsterdam and Adrian and moved northeast. Damage was to one structure with telephone poles down as well. The second EF1 tornado was near Blairstown in Henry county, over open country.
Event Narrative Tornado touched down at 10:05 PM CST, 1 mile east of Gunn City. The EF1 tornado destroyed a moble home before exiting the county into Johnson county at 10:06 PM CST, 2 miles east northeast of Gunn City.


     ‚Äč



All events for this episode:

Location County/Zone St. Date Time T.Z. Type Mag Dth Inj PrD CrD
Totals: 0 0 112.00K 0.00K
KANSAS CITY JACKSON CO. MO 02/28/2007 18:20 CST-6 Hail 0.88 in. 0 0 0.00K 0.00K
RAYTOWN JACKSON CO. MO 02/28/2007 18:35 CST-6 Hail 0.75 in. 0 0 0.00K 0.00K
SUGAR CREEK JACKSON CO. MO 02/28/2007 18:46 CST-6 Hail 0.88 in. 0 0 0.00K 0.00K
ADRIAN BATES CO. MO 02/28/2007 19:15 CST-6 Hail 1.00 in. 0 0 0.00K 0.00K
KANSAS CITY JACKSON CO. MO 02/28/2007 19:15 CST-6 Hail 0.75 in. 0 0 0.00K 0.00K
KANSAS CITY JACKSON CO. MO 02/28/2007 19:19 CST-6 Hail 0.75 in. 0 0 0.00K 0.00K
NORBORNE CARROLL CO. MO 02/28/2007 19:30 CST-6 Hail 0.75 in. 0 0 0.00K 0.00K
CLAYCOMO CLAY CO. MO 02/28/2007 19:39 CST-6 Hail 0.75 in. 0 0 0.00K 0.00K
INDEPENDENCE JACKSON CO. MO 02/28/2007 19:44 CST-6 Hail 1.00 in. 0 0 0.00K 0.00K
PLYMOUTH CARROLL CO. MO 02/28/2007 20:12 CST-6 Hail 0.75 in. 0 0 0.00K 0.00K
AMSTERDAM BATES CO. MO 02/28/2007 20:15 CST-6 Hail 2.75 in. 0 0 12.00K 0.00K
ADRIAN BATES CO. MO 02/28/2007 20:25 CST-6 Hail 1.75 in. 0 0 0.00K 0.00K
AMSTERDAM BATES CO. MO 02/28/2007 20:27 CST-6 Tornado EF1 0 0 50.00K 0.00K
RICHMOND RAY CO. MO 02/28/2007 20:52 CST-6 Hail 0.75 in. 0 0 0.00K 0.00K
BLUE SPGS JACKSON CO. MO 02/28/2007 21:00 CST-6 Hail 0.75 in. 0 0 0.00K 0.00K
INDEPENDENCE JACKSON CO. MO 02/28/2007 21:05 CST-6 Hail 0.75 in. 0 0 0.00K 0.00K
CREIGHTON CASS CO. MO 02/28/2007 21:07 CST-6 Hail 0.75 in. 0 0 0.00K 0.00K
CREIGHTON CASS CO. MO 02/28/2007 21:13 CST-6 Hail 0.88 in. 0 0 0.00K 0.00K
DENTON JOHNSON CO. MO 02/28/2007 21:23 CST-6 Hail 1.00 in. 0 0 0.00K 0.00K
DREXEL CASS CO. MO 02/28/2007 21:25 CST-6 Thunderstorm Wind 52 kts. EG 0 0 0.00K 0.00K
DREXEL CASS CO. MO 02/28/2007 21:25 CST-6 Hail 1.00 in. 0 0 0.00K 0.00K
PECULIAR CASS CO. MO 02/28/2007 21:36 CST-6 Hail 1.00 in. 0 0 0.00K 0.00K
PECULIAR CASS CO. MO 02/28/2007 21:37 CST-6 Hail 1.75 in. 0 0 0.00K 0.00K
PECULIAR CASS CO. MO 02/28/2007 21:43 CST-6 Hail 0.88 in. 0 0 0.00K 0.00K
HARRISONVILLE CASS CO. MO 02/28/2007 21:44 CST-6 Hail 1.00 in. 0 0 0.00K 0.00K
PECULIAR CASS CO. MO 02/28/2007 21:45 CST-6 Hail 0.75 in. 0 0 0.00K 0.00K
SUMNER CHARITON CO. MO 02/28/2007 21:45 CST-6 Flash Flood 0 0 0.00K 0.00K
PECULIAR CASS CO. MO 02/28/2007 21:46 CST-6 Hail 0.88 in. 0 0 0.00K 0.00K
HARRISONVILLE CASS CO. MO 02/28/2007 21:48 CST-6 Hail 1.75 in. 0 0 0.00K 0.00K
HARRISONVILLE CASS CO. MO 02/28/2007 21:50 CST-6 Hail 1.25 in. 0 0 0.00K 0.00K
KANSAS CITY JACKSON CO. MO 02/28/2007 21:50 CST-6 Flash Flood 0 0 0.00K 0.00K
RAYMORE CASS CO. MO 02/28/2007 21:52 CST-6 Hail 0.75 in. 0 0 0.00K 0.00K
PLEASANT HILL CASS CO. MO 02/28/2007 21:55 CST-6 Hail 0.88 in. 0 0 0.00K 0.00K
GUNN CITY CASS CO. MO 02/28/2007 22:05 CST-6 Tornado EF1 0 0 30.00K 0.00K
KINGSVILLE JOHNSON CO. MO 02/28/2007 22:06 CST-6 Tornado EF1 0 0 20.00K 0.00K
PITTSVILLE JOHNSON CO. MO 02/28/2007 22:14 CST-6 Hail 0.75 in. 0 0 0.00K 0.00K
PITTSVILLE JOHNSON CO. MO 02/28/2007 22:20 CST-6 Hail 0.75 in. 0 0 0.00K 0.00K
ODESSA LAFAYETTE CO. MO 02/28/2007 22:35 CST-6 Hail 1.00 in. 0 0 0.00K 0.00K
WARRENSBURG JOHNSON CO. MO 02/28/2007 22:39 CST-6 Hail 1.25 in. 0 0 0.00K 0.00K
NOVINGER ADAIR CO. MO 02/28/2007 22:40 CST-6 Hail 1.00 in. 0 0 0.00K 0.00K
WARRENSBURG JOHNSON CO. MO 02/28/2007 22:40 CST-6 Hail 1.00 in. 0 0 0.00K 0.00K
WARRENSBURG JOHNSON CO. MO 02/28/2007 22:41 CST-6 Thunderstorm Wind 52 kts. EG 0 0 0.00K 0.00K
WARRENSBURG JOHNSON CO. MO 02/28/2007 22:44 CST-6 Hail 0.75 in. 0 0 0.00K 0.00K
SWEET SPGS SALINE CO. MO 02/28/2007 23:10 CST-6 Hail 1.00 in. 0 0 0.00K 0.00K
GRANDVIEW JACKSON CO. MO 02/28/2007 23:17 CST-6 Flash Flood 0 0 0.00K 0.00K
Totals: 0 0 112.00K 0.00K